User: anonymous   Login
Location: Monteux
(44.0348°N, 4.9972°E)
Time: 14:07:59
(UTC+00:00)
Language:

Cosmos 2341 Rocket - Orbit

View from above orbital plane
View from above orbital plane
View from above satellite
View from above satellite

Ground track
Ground track

The orbit data is extracted from the following two-line orbital elements,

1 24773U 97017B   21125.85833778  .00000028  00000-0  14038-4 0  9997
2 24773  82.9249  42.0123 0023584 319.2786 104.1109 13.73657105205381
Epoch (UTC): 05 May 2021 20:36:00
Eccentricity: 0.0023584
inclination: 82.9249°
perigee height: 969 km
apogee height: 1004 km
right ascension of ascending node: 42.0123°
argument of perigee: 319.2786°
revolutions per day: 13.73657105
mean anomaly at epoch: 104.1109°
orbit number at epoch: 20538

The dashed part of the orbit path shows where the satellite is in the earth's shadow,  

DLR